Temp
19 20 21 19 20 17 18 18 17 18 18 15 15 16 17 15 18 18 13 12 13 13 13 14 14 12 13 13 14 15 16 17 17 17 18 17 17 17 18 18 17 17 17 17 17 16 16 16 15
20 20 20 14 17 18 18 15 17 17 16 14 15 15 16 17 13 13 13 13 13 13 13 13 13 12 12 12 13 14 15 16 17 17 17 17 17 17 17 17 18 17 17 17 17 16 16 15 15
20 20 17 14 13 18 18 16 16 16 15 16 15 13 14 15 13 12 13 13 13 13 13 13 13 13 13 11 12 13 14 15 16 17 17 17 17 17 17 17 18 17 17 17 16 16 15 15 15
19 17 14 17 18 17 16 16 16 16 15 15 14 15 13 13 13 13 13 12 12 12 12 13 13 13 13 13 11 11 14 14 15 16 16 17 17 17 17 17 17 17 17 16 16 16 15 15 15
18 14 16 16 17 16 14 15 15 16 15 15 14 15 14 12 13 13 13 12 13 12 12 12 12 13 12 13 13 13 14 14 14 15 15 15 16 17 17 16 17 17 17 17 16 15 15 15 15
16 14 17 17 16 16 15 15 15 15 14 14 14 14 14 12 13 13 13 13 13 13 12 12 12 12 12 12 12 13 13 13 14 14 14 14 15 16 16 17 16 17 16 16 16 15 16 15 15
16 15 17 16 15 16 16 14 15 15 14 15 14 14 14 12 13 13 13 13 12 12 12 12 12 12 12 12 12 12 13 12 12 13 14 14 14 15 16 16 17 16 16 15 16 16 15 15 15
13 14 15 14 14 17 15 14 14 14 15 13 13 14 14 13 13 12 12 12 12 12 12 12 12 12 12 11 11 12 12 12 12 12 13 13 14 14 14 15 16 16 15 15 15 15 15 15 16
14 16 15 17 14 16 14 15 14 13 14 13 13 13 13 13 12 12 12 12 12 12 11 11 11 11 11 11 11 11 12 12 12 12 13 13 13 14 14 14 14 15 15 15 14 15 14 15 16
14 14 16 14 14 15 14 14 14 14 13 13 12 12 12 12 12 12 11 12 12 13 12 11 11 11 11 10 10 10 11 11 11 12 13 12 13 13 13 13 14 15 15 16 14 14 14 15 15
14 15 14 14 14 14 14 14 13 13 13 12 13 13 11 11 11 11 11 11 12 12 12 11 11 10 10 10 10 10 10 10 10 11 11 12 12 13 13 14 14 15 15 15 13 13 13 14 14
16 13 14 14 13 13 14 12 13 11 13 13 12 12 11 10 10 11 11 12 12 11 11 11 10 10 10 9 9 9 9 9 10 10 10 10 11 11 12 13 14 15 14 13 13 13 13 13 13
15 14 13 13 13 13 12 12 12 11 11 10 10 10 10 10 10 11 12 12 11 11 11 11 11 11 9 9 9 8 8 8 9 9 9 9 10 11 12 13 13 13 14 13 13 12 12 13 13
13 13 13 13 13 13 12 12 12 13 10 11 10 10 10 9 10 11 11 12 11 11 11 10 10 10 9 9 8 8 8 8 8 9 9 8 9 10 10 11 13 13 13 12 13 12 12 12 13
13 15 13 13 13 13 12 13 10 11 10 11 11 10 9 9 10 10 12 11 11 11 10 10 10 9 8 8 7 7 7 7 7 8 8 8 9 9 10 11 11 12 13 13 12 12 12 12 12
14 13 15 14 13 12 13 16 15 11 11 12 10 9 9 9 10 11 12 11 11 10 10 9 9 8 8 7 7 7 7 7 6 6 7 8 9 9 9 10 11 12 12 13 11 11 10 11 11
12 16 15 14 10 12 12 14 13 11 11 10 10 9 9 8 9 11 11 11 10 10 9 9 8 8 7 7 6 6 6 6 6 6 6 7 8 9 9 9 10 12 12 12 11 10 10 10 10
17 15 14 13 12 11 11 11 12 11 10 10 9 8 8 8 9 11 10 10 9 9 8 8 8 7 7 6 6 6 6 5 6 6 6 7 8 9 9 10 10 11 12 12 12 11 10 10 11
13 14 14 13 10 10 10 9 12 11 8 8 8 8 8 9 9 10 10 9 8 8 8 8 7 7 6 5 5 5 5 5 5 6 6 8 8 8 8 9 9 10 11 12 12 11 11 11 11
13 13 13 11 10 10 9 11 10 10 11 9 10 10 9 9 9 9 10 8 8 7 7 7 7 5 5 4 4 3 4 5 5 5 6 7 7 7 7 8 9 10 11 12 11 12 11 11 11
12 13 13 12 9 9 7 14 14 13 11 11 11 11 10 9 9 8 9 8 8 7 7 6 6 5 4 4 4 4 4 4 4 5 6 6 7 8 8 8 10 10 11 12 12 12 12 11 11
15 10 10 10 11 14 9 15 14 13 12 14 12 10 9 8 8 8 8 8 7 7 6 6 5 4 4 4 3 3 3 2 3 3 5 6 7 8 8 8 9 9 10 11 12 12 12 12 11
12 9 10 10 10 10 11 11 14 12 17 16 13 11 10 9 7 7 7 7 7 6 6 5 5 4 4 3 3 2 2 3 3 4 5 6 7 7 8 8 8 8 10 11 12 12 12 12 11
8 9 9 8 9 9 11 11 15 15 17 15 13 11 10 9 8 7 7 6 6 5 5 5 4 3 3 3 3 2 2 2 3 4 4 5 6 7 8 8 8 9 11 11 12 12 12 12 11
10 10 10 12 10 13 9 9 14 15 13 12 12 10 10 9 8 6 6 5 5 5 5 5 4 3 3 3 3 2 2 3 3 3 3 4 5 6 8 8 8 10 11 11 12 12 12 12 12
10 11 11 13 13 12 9 13 17 12 12 10 8 8 8 8 7 6 6 5 5 5 4 4 3 3 2 3 3 3 2 3 3 4 3 4 5 5 7 8 8 11 12 12 12 12 12 12 12
10 10 9 5 0 8 12 12 13 13 12 11 10 9 9 9 8 7 5 5 4 4 4 4 3 3 2 3 3 3 3 3 3 4 3 4 6 6 7 8 9 11 12 12 12 12 12 12 12
9 8 10 7 13 12 11 12 15 17 16 15 14 12 11 10 8 5 4 4 4 4 4 4 3 2 2 3 3 3 3 2 3 4 4 4 5 6 7 8 10 11 12 12 12 12 12 12 12
7 7 8 9 8 10 9 14 10 14 15 15 13 12 10 9 7 5 4 4 4 4 4 4 3 2 2 3 3 3 2 2 2 3 4 4 5 6 7 8 10 11 12 12 12 12 12 12 12
7 10 10 10 9 3 6 12 13 10 11 11 10 9 9 8 7 4 3 3 3 3 3 3 3 3 3 3 2 2 2 2 2 4 5 5 5 6 7 9 9 11 12 12 12 12 12 11 11
Height
799 798 797 797 820 830 837 834 831 829 829 831 830 830 831 833 831 837 835 835 833 831 829 826 824 823 823 820 817 815 814 813 812 813 813 813 814 815 816 815 816 816 820 820 820 821 823 825 826
799 798 798 810 832 839 835 834 830 828 829 831 832 832 831 829 833 834 834 834 833 831 829 827 825 824 822 820 817 815 813 812 811 811 812 811 811 812 813 814 814 815 818 818 818 821 824 826 827
799 799 807 826 844 837 834 831 827 827 828 828 830 833 834 830 832 833 833 833 833 831 829 828 825 823 821 819 817 815 813 810 809 809 809 810 810 811 810 812 813 813 815 817 818 819 825 826 827
799 802 817 825 830 829 829 826 826 826 829 828 830 832 833 831 831 831 832 832 831 830 829 827 824 822 820 818 816 814 812 810 808 807 806 808 808 810 810 810 811 811 813 814 816 820 824 827 827
801 810 827 832 831 828 829 826 826 827 828 830 831 830 831 829 830 830 831 831 830 829 827 825 823 821 820 817 815 813 812 810 809 806 807 805 806 806 807 809 809 810 811 811 814 819 823 826 828
811 817 832 834 831 826 825 824 827 827 829 830 831 832 829 828 829 829 829 829 828 827 825 823 821 820 818 816 814 812 810 809 808 807 805 806 805 803 806 807 808 810 808 810 812 817 820 825 827
816 825 831 833 832 828 823 825 826 826 829 828 828 831 827 826 826 827 827 826 826 825 824 822 820 819 817 815 812 810 808 808 807 805 804 803 803 803 804 806 805 807 808 809 813 817 819 824 827
817 825 833 836 836 825 823 824 824 825 825 825 826 828 825 823 824 825 825 824 824 824 823 821 820 818 816 813 810 809 807 806 805 804 803 802 802 802 799 805 805 803 807 804 811 816 818 823 825
813 828 835 827 835 821 823 824 824 823 824 825 823 821 819 821 822 822 822 822 822 822 821 820 819 817 815 813 810 807 804 803 802 802 800 800 800 800 800 801 803 802 806 808 810 812 816 822 825
819 832 823 825 825 824 823 822 822 824 825 824 821 818 819 820 820 818 819 819 819 819 819 818 817 815 813 811 808 806 804 802 801 800 799 799 798 798 799 799 802 802 806 806 807 811 816 822 825
823 825 824 823 824 824 824 824 823 824 823 818 817 814 817 818 817 816 817 817 817 817 817 816 815 813 811 808 805 803 802 800 799 799 797 798 797 797 798 798 799 800 802 804 809 814 817 822 825
819 825 824 824 824 824 824 824 824 824 814 811 813 814 815 815 814 814 813 814 814 814 813 812 811 810 809 807 805 803 800 799 797 797 797 797 795 796 797 797 799 799 800 799 806 811 816 822 825
819 823 824 824 823 823 823 823 823 817 811 811 814 814 813 813 812 811 810 810 810 809 809 809 808 807 806 805 804 800 797 796 795 795 795 795 794 794 795 796 799 798 801 804 806 811 817 821 824
821 821 822 822 821 821 822 819 817 806 806 808 811 811 811 812 810 808 808 806 806 805 806 806 806 805 804 802 801 798 795 794 793 791 792 793 793 792 795 795 795 800 801 802 806 811 817 820 823
822 821 821 821 821 820 822 815 817 805 807 808 808 808 808 808 807 805 803 803 803 802 803 804 803 803 802 800 797 795 792 790 790 789 789 792 792 792 791 793 797 796 798 801 803 808 815 820 823
825 827 824 820 821 821 820 806 800 804 806 805 808 807 807 806 804 802 801 800 799 800 801 801 801 800 799 797 794 792 790 788 787 787 787 789 790 790 791 791 791 793 795 799 800 802 812 817 822
834 824 825 821 829 824 822 810 800 803 805 806 805 806 806 805 801 800 799 798 798 798 799 799 799 798 796 794 792 790 787 786 786 785 786 787 788 788 788 790 790 790 791 796 801 803 809 814 822
822 824 826 828 826 826 825 812 802 801 803 800 801 804 804 802 799 799 798 798 798 798 798 798 797 796 794 792 790 788 785 784 783 783 784 785 786 787 785 786 787 790 795 791 798 803 808 812 819
830 828 829 826 832 833 825 821 796 796 800 801 800 800 800 799 797 798 798 798 798 798 798 797 796 794 793 790 788 785 783 782 782 782 783 783 784 784 784 785 787 787 788 790 797 802 807 813 818
831 829 830 829 831 835 827 807 800 796 793 796 794 794 796 796 797 797 797 798 798 798 797 796 795 795 793 790 788 786 783 781 781 781 781 781 781 783 783 783 783 786 787 788 793 801 807 810 815
832 828 829 833 836 836 838 800 791 789 793 792 791 791 794 795 797 797 797 797 797 796 796 795 795 794 792 789 787 785 782 781 781 779 779 779 779 780 781 781 782 783 785 787 793 799 802 805 812
826 838 838 836 834 824 839 812 795 795 792 788 789 792 794 795 796 796 796 795 795 795 795 794 794 794 792 788 786 784 782 783 782 780 778 776 777 777 777 777 777 779 784 789 790 796 800 802 809
832 842 842 841 839 842 832 835 798 798 782 784 787 790 791 791 794 794 794 793 794 794 794 793 793 792 791 789 787 785 784 783 782 779 777 775 774 775 774 775 775 777 780 783 788 793 797 802 806
844 842 846 849 847 854 834 834 800 792 782 786 788 789 789 789 790 791 792 792 793 793 793 792 792 792 791 788 787 785 783 782 780 778 775 772 771 772 773 771 770 770 773 779 782 789 795 800 803
840 840 852 837 848 832 845 844 796 782 785 787 789 790 788 788 789 790 790 790 791 791 791 791 792 792 790 788 786 785 783 782 781 779 776 772 770 770 768 767 764 766 770 777 781 788 793 797 802
837 835 845 841 840 835 845 821 785 786 784 789 792 790 788 787 788 787 787 788 789 790 790 790 791 791 790 788 786 785 783 781 779 778 776 774 770 769 769 766 763 764 769 775 780 787 793 796 800
836 843 842 876 916 867 824 808 785 781 781 782 786 787 787 786 786 785 786 786 787 789 789 789 790 791 790 788 786 785 783 781 779 777 777 774 770 769 767 765 760 762 768 773 779 785 790 795 800
838 842 842 862 835 839 830 819 792 771 771 771 775 780 782 783 784 784 785 785 786 788 788 788 789 790 790 788 786 785 784 782 777 777 775 774 771 770 766 762 761 764 769 775 779 785 789 794 799
847 850 844 844 852 852 860 803 791 777 771 770 774 779 780 781 782 782 782 784 785 786 787 788 788 790 790 789 787 786 785 783 779 778 776 775 772 769 766 762 760 761 766 773 779 784 789 794 797
839 826 828 834 850 884 868 815 778 783 779 779 778 779 779 778 779 780 781 782 784 785 786 787 788 789 790 789 789 787 785 784 781 778 777 776 774 771 768 763 764 766 769 775 780 784 789 792 797
Wind_Speed
6 4 2 4 4 4 1 3 0 2 2 2 1 1 1 1 2 2 2 5 9 13 17 20 19 20 19 19 17 17 14 10 7 11 11 11 12 13 12 12 12 14 16 16 16 20 19 18 18
5 3 4 2 4 2 3 2 4 1 2 4 3 0 1 2 1 1 1 7 9 13 16 18 18 18 19 19 16 18 16 12 9 10 14 13 14 15 14 13 14 17 19 17 19 20 18 18 17
2 5 3 4 3 4 4 3 3 2 2 1 1 0 2 2 0 1 1 6 8 12 15 17 18 18 18 18 18 16 17 19 11 11 11 15 14 15 15 14 18 18 19 18 20 20 17 18 18
0 4 3 4 3 3 3 2 3 3 2 3 1 3 2 2 3 2 3 5 7 11 15 16 16 17 18 18 18 17 14 15 14 10 9 12 12 15 14 15 18 19 18 21 19 18 19 19 20
5 3 3 2 3 2 3 2 3 4 3 1 1 2 2 2 3 1 2 3 8 12 14 15 15 16 16 17 16 16 12 14 14 10 8 9 8 13 12 14 17 17 20 20 19 20 20 20 21
4 3 3 2 3 2 3 2 3 2 1 1 1 1 3 3 5 3 2 4 9 12 13 14 15 15 16 16 16 15 14 12 13 13 10 11 9 9 7 11 15 17 20 16 19 21 22 22 22
5 3 2 2 3 3 3 5 3 4 3 4 4 2 2 3 5 3 3 5 8 11 12 13 14 15 15 15 14 15 14 13 13 14 8 11 11 11 9 8 10 17 17 17 20 22 25 23 21
4 4 2 3 3 4 3 3 3 4 4 2 6 5 4 3 7 5 5 6 8 9 10 11 12 14 15 15 14 14 13 12 11 12 13 8 13 16 15 13 11 12 19 21 21 24 25 24 24
3 3 1 4 5 2 2 3 2 1 2 3 5 4 3 6 7 6 6 8 8 7 8 10 12 14 15 17 17 16 14 12 11 12 14 12 10 13 19 16 16 11 16 11 22 24 26 22 21
4 3 5 3 3 2 3 3 3 0 2 4 4 6 5 8 8 8 7 10 10 10 9 11 12 13 14 15 17 17 15 14 11 11 10 11 7 6 11 14 15 11 14 13 21 23 23 21 20
1 3 2 2 1 0 1 2 1 2 5 9 7 4 8 11 11 10 10 10 10 10 8 8 9 12 15 16 17 17 17 14 13 10 9 10 8 8 5 2 8 11 18 16 17 19 19 18 17
2 1 2 1 0 1 2 3 4 7 6 3 7 0 3 7 10 12 11 11 11 10 9 7 9 12 13 15 16 17 17 16 14 12 9 9 9 7 4 5 1 7 18 25 21 19 19 19 17
2 3 1 1 1 3 2 5 5 9 10 7 6 5 7 7 9 10 12 13 12 13 10 8 8 12 13 15 17 17 17 16 14 13 9 8 9 8 7 9 9 7 16 11 23 21 19 19 18
3 2 2 2 3 2 3 3 2 3 4 3 5 8 7 7 8 9 11 16 16 15 12 8 7 10 12 15 16 18 17 17 15 12 9 7 9 8 4 8 13 15 14 25 20 22 23 22 22
3 1 3 3 2 2 2 4 7 5 5 6 5 5 6 6 10 13 16 19 16 14 10 7 6 9 11 15 17 17 17 16 14 11 5 7 8 9 8 7 4 8 12 22 28 28 28 26 23
2 3 2 1 2 2 1 8 3 1 4 6 6 6 6 6 10 16 17 18 14 10 9 6 6 7 11 15 16 16 16 15 12 7 5 6 6 7 7 7 6 5 16 15 23 37 32 28 25
5 2 2 5 4 3 1 7 4 3 0 8 7 7 7 7 10 11 10 9 5 8 7 5 5 9 13 14 15 15 13 11 7 7 6 5 7 7 7 6 9 6 20 20 24 28 32 27 24
3 3 3 5 3 2 5 17 14 10 8 13 8 6 6 6 7 7 6 3 4 7 5 3 6 10 12 13 14 12 10 9 10 4 4 5 7 8 8 7 3 11 18 24 23 26 29 28 26
2 0 3 4 1 4 6 10 19 9 6 7 7 6 6 6 4 4 2 1 4 5 3 4 7 10 11 12 14 14 14 12 4 2 4 5 7 7 8 7 7 9 12 25 27 26 27 23 26
1 1 4 4 1 2 6 18 8 3 3 3 3 4 4 3 4 6 4 3 5 5 4 5 7 8 8 9 10 10 13 7 6 3 4 3 4 5 6 6 7 6 11 27 27 26 22 16 29
2 3 2 4 6 1 7 6 5 2 3 3 2 1 2 5 4 4 4 4 6 6 5 5 7 7 7 8 9 8 6 4 5 8 8 7 5 4 5 6 10 8 14 16 26 32 22 19 26
3 1 1 2 4 3 5 4 4 4 6 0 4 3 4 5 3 2 5 4 5 4 4 5 6 6 6 7 7 7 6 5 8 12 13 9 5 3 4 7 11 13 19 24 30 30 27 24 20
1 1 1 1 1 2 5 2 7 4 2 1 2 3 2 2 3 3 5 3 2 3 3 5 6 5 6 7 6 6 6 7 10 11 11 8 6 5 3 6 10 18 21 18 29 27 27 26 23
4 2 3 3 2 3 2 2 5 2 3 2 3 3 0 1 2 3 2 2 2 2 3 5 5 5 5 5 5 6 7 9 10 12 13 13 10 7 7 9 6 15 23 22 30 28 28 28 23
1 2 3 5 4 3 1 2 8 5 5 4 5 7 4 3 3 4 5 5 4 3 2 4 5 5 5 5 5 6 7 8 9 11 11 14 14 14 12 13 4 14 23 24 28 28 30 29 26
4 3 4 5 1 5 1 5 4 5 3 4 7 8 5 4 3 4 4 5 4 4 2 3 4 5 4 4 5 7 7 7 8 9 10 11 13 13 12 13 4 15 24 25 28 27 28 29 27
3 2 2 7 1 3 3 7 8 4 8 6 9 6 6 5 4 4 5 5 5 4 1 2 3 4 4 5 5 7 8 8 7 7 9 11 12 13 13 12 2 12 26 27 30 27 27 22 19
1 4 3 3 1 3 5 6 5 2 7 4 5 5 4 2 4 4 5 6 5 4 2 2 2 3 4 5 7 6 6 7 6 8 10 10 11 12 13 12 9 21 26 25 25 23 20 17 19
1 0 3 3 3 4 1 6 6 6 5 6 5 4 5 4 5 5 6 7 7 5 3 2 1 2 3 4 5 6 6 6 6 8 8 10 11 12 14 14 12 22 25 25 22 19 17 19 18
2 3 4 4 4 1 3 7 2 7 5 4 7 7 5 5 5 5 8 9 9 7 5 3 2 1 1 4 4 6 7 6 6 8 9 11 10 12 15 14 14 21 21 23 20 17 15 17 16
Wind_Direction
353 359 6 40 66 67 238 237 100 177 159 312 61 178 167 99 199 245 343 357 352 355 356 355 355 357 352 351 352 349 349 304 276 260 243 225 221 216 215 206 201 186 185 175 158 148 143 141 140
5 1 35 79 92 83 263 227 213 158 132 143 97 53 23 261 210 277 347 342 345 349 349 351 350 350 353 352 347 349 348 322 277 268 256 239 226 220 216 211 197 180 187 181 157 146 146 146 142
43 33 75 87 103 181 211 211 181 112 134 161 110 7 162 222 216 159 334 333 333 341 346 348 345 343 345 348 352 345 344 350 296 272 261 249 236 231 221 215 199 194 184 174 158 148 153 150 145
31 31 51 85 221 238 210 204 182 144 95 53 109 293 258 211 146 164 320 322 335 339 344 344 344 341 338 339 343 347 339 339 344 291 262 255 245 241 231 222 212 204 186 167 157 153 156 154 150
39 51 57 61 259 249 239 247 165 160 126 122 100 284 256 184 182 226 305 326 330 338 340 342 344 342 336 335 335 339 333 325 349 318 278 238 235 242 230 232 222 215 195 171 158 158 160 160 153
38 92 62 234 243 259 263 194 142 153 116 135 129 279 255 181 186 209 260 310 329 333 338 340 344 342 337 335 333 335 337 320 317 340 296 260 231 212 231 230 224 214 192 183 175 171 164 163 159
107 80 221 219 252 297 219 139 174 180 152 234 150 202 264 251 199 217 257 301 322 328 334 340 343 340 339 335 331 329 332 326 319 312 320 282 260 228 212 208 221 219 202 189 180 177 166 167 164
106 92 119 239 217 259 152 162 148 169 232 115 165 216 229 202 186 207 257 292 313 322 327 337 340 340 340 339 335 329 324 323 305 312 301 288 263 242 222 240 228 209 230 195 188 179 172 169 161
127 65 226 233 178 222 160 177 218 25 159 213 206 196 188 163 176 210 268 297 305 310 321 334 342 343 342 340 339 333 328 319 314 306 311 288 275 266 250 250 273 256 231 240 193 178 173 167 162
86 129 219 196 191 259 188 191 191 182 229 257 267 246 203 186 198 228 265 292 301 313 322 332 338 340 341 341 338 338 333 324 317 303 302 288 261 279 250 253 252 240 233 199 195 167 165 165 165
115 202 179 224 211 189 251 281 196 163 260 224 211 216 198 205 216 233 258 265 279 286 293 306 327 337 337 338 337 333 334 328 319 307 291 294 283 262 225 200 231 218 220 212 169 173 169 167 159
140 132 162 179 73 159 226 310 282 198 236 288 218 336 197 215 221 235 257 264 260 261 271 289 323 333 332 335 333 332 329 329 321 313 302 290 291 290 255 220 319 184 166 164 162 172 170 166 160
117 173 185 208 183 239 269 243 237 252 250 251 256 256 242 239 243 260 263 262 257 253 258 275 311 324 327 330 329 329 327 325 320 310 304 300 293 293 271 244 237 202 178 179 173 175 177 172 163
155 154 184 227 223 273 270 253 41 223 39 188 216 248 246 252 258 279 277 271 260 257 251 261 298 312 322 325 327 327 326 321 318 306 294 307 289 293 287 238 250 239 222 197 195 182 183 172 165
117 338 306 226 216 260 270 264 235 254 311 307 299 291 286 279 285 278 286 284 276 264 245 254 292 307 316 321 326 326 326 321 317 310 276 286 287 281 286 267 263 235 220 203 193 185 182 166 153
46 62 348 301 340 311 314 273 244 49 197 263 282 279 285 285 281 285 288 284 276 239 223 246 285 306 320 325 326 326 326 322 318 311 285 277 280 276 286 272 248 215 195 176 165 173 171 171 170
11 267 261 318 24 307 194 273 263 143 291 287 272 259 282 289 293 279 289 288 253 209 215 250 295 320 327 328 327 329 328 324 322 314 289 267 273 269 275 266 235 229 185 174 173 165 174 176 179
263 274 252 257 318 313 256 265 267 266 258 263 262 269 273 285 271 286 304 275 204 204 220 270 315 326 330 331 328 331 338 327 315 307 292 275 281 267 280 282 268 216 193 163 179 178 176 166 169
101 179 273 265 6 310 258 276 283 285 252 268 265 253 260 265 278 282 322 223 212 226 250 302 325 329 332 336 342 342 342 342 0 343 314 295 283 278 277 272 256 226 210 177 186 177 172 173 173
128 273 287 281 51 332 317 294 288 310 299 256 246 220 235 259 298 305 278 254 250 263 278 309 325 331 333 341 338 332 330 334 334 353 347 336 313 298 286 264 266 250 218 187 180 175 176 174 177
222 218 241 238 323 271 305 295 351 12 329 275 216 178 160 229 264 310 300 283 265 267 278 309 324 336 334 340 340 348 356 350 345 345 2 8 350 313 290 270 254 236 196 184 190 184 176 157 173
266 147 123 340 18 287 3 278 322 338 314 305 1 328 272 266 295 315 314 313 290 276 271 312 331 335 331 337 348 359 16 352 333 336 343 359 18 341 291 294 247 234 208 202 187 189 190 175 168
283 32 34 13 95 345 355 68 270 346 325 107 16 36 37 235 246 283 296 293 276 249 283 319 333 329 328 343 356 360 13 0 347 351 351 1 22 24 340 318 252 233 210 206 197 192 188 191 172
143 86 40 45 53 31 325 97 287 228 210 290 259 319 322 166 191 203 200 209 194 235 285 319 332 325 337 345 356 9 17 7 0 2 354 356 5 15 10 340 260 230 204 201 190 201 195 197 179
142 66 335 352 8 221 38 9 248 250 229 211 269 279 266 219 191 215 202 211 218 232 283 323 324 323 340 352 360 18 28 23 4 359 351 352 357 3 2 350 338 206 196 196 186 192 190 198 194
190 181 155 216 266 277 86 236 246 217 257 252 262 256 272 255 217 234 209 188 201 200 255 310 323 330 337 1 11 14 14 26 20 357 355 354 349 355 353 348 346 182 188 190 186 188 193 194 193
190 195 131 103 41 34 259 282 292 258 272 254 253 263 269 248 225 208 172 168 180 187 218 291 321 329 345 1 8 14 21 24 27 5 8 0 355 357 351 4 59 184 180 182 184 184 187 190 198
223 143 75 5 89 294 290 284 244 235 223 247 263 262 284 234 200 194 190 182 183 185 187 255 309 323 344 11 0 12 28 20 15 21 12 11 359 3 3 14 92 171 177 185 181 178 179 186 195
140 357 56 117 118 175 267 271 213 227 217 227 264 284 279 264 230 205 200 186 179 183 185 229 279 322 0 5 359 1 26 44 13 38 26 22 16 8 12 29 73 147 173 173 171 174 183 198 202
282 204 170 126 242 56 140 275 267 248 265 279 279 279 274 271 227 208 197 180 180 185 187 207 226 289 3 356 16 15 29 42 49 42 35 34 27 29 35 44 69 139 149 159 167 168 176 176 174